Location: Bruch
(44.2051°N, 0.4120°E)
Time: 12:41:54
(UTC+00:00)

ALOS - Pass Details

Date: 29 November 2020
Orbit: 682 x 686 km, 97.9° (Epoch: 25 January)

Event Time Altitude Azimuth Distance (km) Brightness Sun altitude
Rises 03:48:35 0° 22° (NNE) 3,063 5.9 -35.8°
Reaches altitude 10° 03:51:05 10° 33° (NNE) 2,141 5.2 -35.3°
Enters shadow 03:53:18 23° 55° (NE) 1,464 4.4 -34.9°
